This demonstration page uses our WeatherBlox Daily Observations layout. Learn more.

Left ArrowRight Arrow

39.95238, -75.16362

Hourly Observations for September 12, 2019

Temp ( °F °C ) Dew Point ( °F °C ) Humidity (%) Winds ( mph kmh ) Pressure ( in mb ) Visibility ( mi km ) Precip ( " mm )
12:54 am 00:54 Mostly Clear 78 25.6 72 22.2 82 82 SW 6 9 30.05 1018 10 16 0.00 0.00
1:54 am 01:54 Mostly Cloudy 76 24.4 72 22.2 88 88 S 7 11 30.02 1017 10 16 0.00 0.00
2:54 am 02:54 Cloudy 75 23.9 71 21.7 88 88 S 6 9 30.01 1016 10 16 0.00 0.00
3:54 am 03:54 Cloudy 75 23.9 71 21.7 88 88 WSW 8 13 30.03 1017 10 16 0.00 0.00
4:39 am 04:39 Cloudy with Light Rain 76 24.4 72 22.2 88 88 W 5 7 30.02 1017 8 13 0.00 0.00
4:54 am 04:54 Cloudy with Light Rain 76 24.4 72 22.2 88 88 W 5 7 30.02 1017 8 13 0.00 0.00
5:26 am 05:26 Cloudy 75 23.9 71 21.7 88 88 SW 6 9 30.01 1016 10 16 0.00 0.00
5:54 am 05:54 Cloudy with Light Rain 76 24.4 71 21.7 85 85 WSW 6 9 30.01 1016 10 16 0.00 0.00
6:54 am 06:54 Mostly Cloudy 76 24.4 69 20.6 79 79 WSW 6 9 30.03 1017 10 16 0.00 0.00
7:54 am 07:54 Mostly Cloudy 76 24.4 69 20.6 79 79 W 7 11 30.06 1018 10 16 0.00 0.00
8:54 am 08:54 Mostly Cloudy 78 25.6 68 20 71 71 W 6 9 30.07 1018 10 16 0.00 0.00
9:54 am 09:54 Mostly Cloudy 80 26.7 67 19.4 64 64 WNW 7 11 30.06 1018 10 16 0.00 0.00
10:54 am 10:54 Mostly Cloudy 84 28.9 66 18.9 55 55 NNW 15 24 30.06 1018 10 16 0.00 0.00
11:54 am 11:54 Mostly Cloudy 85 29.4 67 19.4 55 55 WNW 7 11 30.06 1018 10 16 0.00 0.00
12:54 pm 12:54 Mostly Cloudy 86 30 66 18.9 51 51 NNW 15 24 30.05 1018 10 16 0.00 0.00
1:54 pm 13:54 Mostly Cloudy 86 30 67 19.4 53 53 WNW 10 17 30.04 1017 10 16 0.00 0.00
2:54 pm 14:54 Mostly Cloudy 86 30 68 20 55 55 NNW 9 15 30.04 1017 10 16 0.00 0.00
3:54 pm 15:54 Mostly Cloudy 86 30 66 18.9 51 51 Calm 30.03 1017 10 16 0.00 0.00
4:54 pm 16:54 Mostly Cloudy 87 30.6 66 18.9 50 50 NW 18 30 30.05 1018 10 16 0.00 0.00
5:03 pm 17:03 Mostly Cloudy with Light Rain 77 25 65 18.3 66 66 NNW 24 39 30.07 1018 2 3 0.00 0.00
5:08 pm 17:08 Mostly Cloudy with Rain 75 23.9 70 21.1 84 84 N 14 22 30.06 1018 4 6 0.00 0.00
5:12 pm 17:12 Mostly Cloudy with Rain 74 23.3 70 21.1 88 88 N 16 26 30.06 1018 5 8 0.03 0.76
5:37 pm 17:37 Mostly Cloudy with Light Rain 76 24.4 72 22.2 88 88 NE 10 17 30.09 1019 7 11 0.05 1.27
5:54 pm 17:54 Mostly Cloudy with Light Rain 74 23.3 71 21.7 91 91 NE 12 19 30.10 1019 7 11 0.05 1.27
6:07 pm 18:07 Cloudy with Light Rain 74 23.3 70 21.1 88 88 ENE 13 20 30.10 1019 10 16 0.00 0.00
6:51 pm 18:51 Cloudy 73 23 70 21 89 89 E 12 19 30.12 1020 10 16 0.00 0.00
6:54 pm 18:54 Cloudy 73 22.8 69 20.6 87 87 E 14 22 30.11 1020 10 16 0.00 0.00
7:21 pm 19:21 Cloudy 73 22.8 69 20.6 87 87 E 13 20 30.13 1020 10 16 0.00 0.00
7:54 pm 19:54 Cloudy 72 22.2 68 20 87 87 E 16 26 30.14 1021 10 16 0.00 0.00
8:25 pm 20:25 Cloudy 71 21.7 67 19.4 87 87 E 13 20 30.16 1021 10 16 0.00 0.00
8:54 pm 20:54 Cloudy 70 21.1 66 18.9 87 87 E 15 24 30.18 1022 10 16 0.00 0.00
9:41 pm 21:41 Cloudy 70 21.1 65 18.3 84 84 E 17 28 30.21 1023 10 16 0.00 0.00
9:54 pm 21:54 Cloudy 69 20.6 65 18.3 87 87 E 14 22 30.21 1023 10 16 0.00 0.00
10:01 pm 22:01 Cloudy 69 20.6 64 17.8 84 84 E 16 26 30.22 1023 10 16 0.00 0.00
10:27 pm 22:27 Cloudy with Light Rain 68 20 65 18.3 90 90 E 14 22 30.23 1024 6 10 0.00 0.00
10:54 pm 22:54 Cloudy with Haze 68 20 63 17.2 84 84 E 21 33 30.22 1023 6 10 0.00 0.00
11:08 pm 23:08 Cloudy with Mist and Fog 67 19.4 64 17.8 91 91 E 16 26 30.23 1024 6 10 0.00 0.00
11:21 pm 23:21 Cloudy 68 20 63 17.2 84 84 E 20 31 30.23 1024 8 13 0.00 0.00
11:37 pm 23:37 Cloudy 68 20 62 16.7 81 81 E 13 20 30.24 1024 10 16 0.00 0.00
11:54 pm 23:54 Cloudy 67 19.4 62 16.7 84 84 E 16 26 30.23 1024 10 16 0.00 0.00

Powered by AerisWeather